Temperature
18 18 18 18 18 18 18 18 18 18 18 18 18 18 17 17 17 17 17 16 16 16 16 16 16 16 16 16 16 16 16 16 16 16 15 15 15 15
18 18 18 18 18 18 18 18 18 18 18 18 18 18 17 17 17 16 16 16 16 16 16 16 16 16 15 15 15 15 15 15 15 15 15 15 15 15
18 18 18 18 18 18 18 18 18 18 18 18 17 17 17 17 17 16 16 16 16 16 16 15 15 15 15 15 15 15 15 15 15 15 15 15 15 15
18 18 18 18 18 18 18 18 18 18 17 17 17 17 17 17 16 16 16 16 16 15 15 15 15 15 15 15 15 15 15 15 14 14 14 14 14 14
17 17 17 17 17 18 17 17 17 17 17 17 17 17 17 16 16 16 15 15 15 15 15 15 15 15 14 14 14 14 14 14 14 14 14 14 14 14
17 17 17 17 17 17 17 17 17 17 17 17 17 16 16 16 16 16 15 15 15 15 15 15 14 14 14 14 14 14 14 14 14 14 14 14 13 13
17 17 17 17 17 17 17 17 17 17 16 16 16 16 16 16 16 16 15 15 15 14 14 14 14 14 14 14 14 14 14 14 13 13 13 13 13 13
17 17 17 17 17 17 17 17 17 16 16 16 16 16 16 16 16 15 15 15 14 14 14 14 14 14 14 14 14 13 13 13 13 13 13 13 13 12
17 17 17 17 17 17 17 16 17 17 16 16 16 16 16 16 16 15 15 15 15 15 14 14 14 14 14 14 13 13 13 13 13 13 13 12 12 12
17 17 17 17 17 17 16 16 16 16 16 16 16 16 16 16 15 15 15 15 14 14 14 14 14 13 13 13 13 13 13 13 13 12 12 12 12 12
16 16 16 16 16 16 16 16 16 16 16 16 16 16 16 15 15 15 15 14 14 14 14 14 14 13 13 13 13 13 12 12 12 12 12 12 12 11
16 16 16 16 16 16 16 15 15 16 15 15 15 15 15 15 15 15 15 14 14 14 14 13 13 13 13 13 13 13 12 12 12 12 12 11 11 11
16 16 16 16 16 15 15 15 15 15 15 15 15 15 14 14 14 14 14 14 14 14 14 13 13 13 13 12 12 12 12 12 12 12 11 11 11 11
15 15 15 15 15 15 15 15 15 14 14 14 14 14 14 14 14 14 14 14 14 14 14 13 13 13 13 12 12 12 12 12 12 12 11 11 11 11
15 15 15 14 14 14 14 14 14 14 14 14 14 13 14 14 14 13 13 13 13 13 13 13 13 13 13 12 12 12 12 12 11 11 11 11 11 11
14 14 14 14 14 14 14 14 14 14 14 13 13 13 13 13 13 13 13 13 13 13 13 13 13 12 12 12 12 12 12 11 11 11 11 11 11 11
14 14 13 13 13 13 13 13 13 13 13 13 13 13 13 13 13 13 13 12 12 12 12 12 12 12 12 12 12 12 12 11 11 11 11 11 11 11
13 13 13 13 13 13 13 13 13 13 13 13 13 13 13 13 12 12 12 12 12 12 12 12 12 12 12 11 12 12 12 11 11 11 11 10 10 10
13 13 12 12 12 12 12 12 12 12 12 12 12 12 12 12 12 12 12 12 12 12 12 12 12 11 11 11 11 11 11 11 11 10 10 10 10 10
12 12 12 12 12 12 12 12 12 12 11 11 11 12 12 12 12 12 11 11 11 11 11 11 11 11 11 11 11 11 11 11 10 10 10 10 10 9
12 12 12 12 11 11 11 11 11 11 11 11 11 11 11 11 11 11 11 11 11 11 11 11 11 11 11 11 11 11 11 10 10 10 10 10 9 9
11 11 11 11 11 11 11 11 11 10 11 10 10 11 11 11 11 11 11 11 11 11 11 11 11 11 10 10 10 10 10 10 10 10 10 10 9 9
11 11 11 11 11 10 10 10 10 10 10 10 10 10 10 10 10 10 10 10 10 10 10 10 10 10 10 10 10 10 10 10 10 10 10 9 9 9
Wind_Speed
5 4 4 4 4 3 2 2 2 3 3 2 2 3 4 6 9 8 7 8 8 7 7 7 5 4 3 3 2 1 1 0 0 0 0 0 1 1
4 4 4 4 3 3 3 3 3 3 2 2 2 3 4 5 9 8 8 9 9 9 8 7 6 5 4 3 2 2 1 1 1 1 2 2 1 1
4 4 4 4 3 3 3 3 3 2 3 2 1 2 3 3 5 7 8 8 8 10 10 9 8 6 5 4 3 3 2 1 2 2 3 3 3 3
5 4 5 5 5 4 3 3 3 3 3 3 2 2 3 4 4 5 7 8 8 11 12 11 10 8 7 6 5 4 3 2 3 3 3 3 4 3
4 4 5 5 5 4 4 4 3 3 3 3 4 3 3 4 4 5 5 4 8 10 11 11 11 9 8 8 6 5 4 4 3 3 4 4 3 3
4 5 5 5 5 4 4 4 4 3 3 4 4 3 3 4 4 4 4 4 4 7 8 9 10 10 9 9 8 7 7 6 5 4 4 4 3 3
4 4 5 4 5 4 4 3 3 3 4 4 4 3 3 3 3 3 4 3 3 3 4 6 7 6 7 9 9 9 8 8 7 6 5 4 4 3
5 4 4 4 5 6 4 3 3 4 4 4 4 4 4 3 3 4 3 3 3 3 4 5 6 5 6 8 11 12 11 10 9 7 6 5 4 4
5 4 5 5 3 3 4 4 3 4 5 5 5 4 4 4 4 4 4 4 4 3 3 4 4 4 5 9 14 15 13 12 11 9 8 7 6 5
5 5 5 4 4 3 4 4 4 4 6 5 4 4 3 3 4 5 5 4 3 3 3 3 3 3 3 7 12 15 14 13 12 11 10 8 7 6
6 5 6 5 4 5 4 4 4 4 5 5 4 5 5 5 4 3 4 4 4 4 3 3 2 2 3 3 9 14 14 14 13 12 11 9 8 6
3 4 5 5 5 5 5 5 5 5 4 4 4 5 5 5 7 6 5 4 3 3 3 3 3 2 2 3 5 9 10 12 13 12 12 10 8 6
4 3 1 3 4 5 5 5 5 4 4 5 5 5 5 4 4 4 4 5 4 3 3 4 3 3 2 2 3 5 7 7 8 9 11 11 10 7
3 2 1 2 3 4 5 6 6 4 4 4 4 4 4 4 4 4 5 5 5 5 5 5 3 4 3 3 2 4 5 6 6 6 7 10 11 11
3 3 2 3 3 4 7 7 6 5 5 5 5 4 3 4 4 4 4 4 4 6 7 6 5 4 4 4 3 3 3 4 5 5 5 6 6 6
3 3 3 4 4 5 4 4 5 5 4 5 4 4 3 3 4 4 4 4 4 4 4 6 6 6 5 4 4 4 4 4 5 5 4 4 6 8
2 3 4 3 3 3 4 4 4 4 4 4 4 4 3 3 3 3 3 3 4 4 4 3 4 5 5 4 4 4 4 3 4 5 4 4 4 5
2 4 5 5 5 4 4 4 3 3 3 4 4 4 4 4 4 4 4 4 4 4 4 4 3 3 2 2 4 5 4 3 3 4 4 4 4 3
4 5 5 5 5 5 4 4 4 3 3 4 4 4 4 4 4 4 4 4 4 4 4 4 4 4 4 4 3 3 4 3 3 3 4 3 4 4
5 6 5 5 4 4 4 3 3 3 3 3 4 3 3 3 4 4 4 4 4 4 4 3 4 5 5 5 3 3 5 5 4 4 3 2 2 3
5 5 5 4 4 3 3 3 3 3 3 3 4 4 3 3 4 4 4 5 5 4 5 4 4 5 3 3 3 3 3 5 6 5 4 3 3 3
5 5 4 3 3 3 3 3 3 3 3 3 4 3 3 3 4 3 4 4 4 4 4 3 3 3 3 4 4 4 3 2 3 5 4 5 4 4
4 4 4 3 3 3 3 4 4 4 3 3 3 3 3 3 3 3 3 3 3 3 3 3 3 2 3 4 4 3 4 4 3 3 2 3 6 6
Wind_Direction
245 246 248 259 260 251 242 228 238 255 249 220 193 157 140 136 146 150 149 157 161 162 163 163 159 157 153 154 160 156 152 141 132 110 194 244 259 244
235 241 245 252 264 257 240 231 232 237 254 243 214 169 168 164 164 158 155 159 164 166 169 168 165 164 163 165 165 164 165 156 140 120 111 110 95 68
241 234 235 248 254 263 257 244 239 223 236 249 246 180 166 156 160 158 160 163 168 177 175 173 172 173 174 173 170 170 167 152 129 116 112 106 97 90
236 237 237 237 236 255 258 246 240 223 218 237 236 208 195 180 173 189 182 182 173 185 183 181 179 177 180 182 178 175 166 152 132 122 115 106 100 93
243 242 241 238 233 233 242 246 241 238 214 221 236 219 206 198 191 211 203 188 184 181 184 185 182 183 188 188 189 183 176 165 152 144 127 114 107 100
246 244 244 239 234 236 240 245 250 253 235 223 231 223 213 204 200 207 213 206 202 186 176 180 184 189 194 195 195 192 186 177 168 157 144 135 130 120
249 247 245 233 225 228 237 232 238 245 247 235 230 229 220 206 214 220 218 211 203 187 174 179 178 186 194 202 202 199 193 186 179 172 168 166 163 154
248 251 252 231 224 214 219 221 224 237 250 248 237 224 219 218 221 231 225 218 218 190 188 199 182 193 191 192 196 194 194 191 188 185 186 187 186 182
240 241 253 250 224 219 220 224 241 248 247 249 255 246 225 216 218 228 227 228 230 195 190 213 192 199 191 191 187 189 192 192 192 191 194 196 198 200
237 231 235 251 246 220 230 228 233 245 247 240 249 254 238 219 213 221 230 231 225 203 177 210 203 203 185 172 182 187 190 191 193 195 197 200 203 209
238 233 224 224 213 209 220 227 239 245 244 230 235 245 244 231 217 221 227 220 223 213 194 196 201 185 171 176 189 193 193 196 199 199 201 204 208 210
239 232 221 210 205 204 219 225 233 243 251 243 239 249 242 226 215 212 217 224 227 213 189 185 196 181 192 186 177 189 198 204 205 206 205 207 208 203
242 235 212 173 194 215 227 236 239 249 250 246 236 225 221 220 214 215 213 213 220 229 192 177 197 202 200 183 181 188 190 192 197 207 210 209 205 198
261 242 187 173 212 230 232 235 243 251 255 250 243 227 215 215 217 213 211 215 218 216 206 188 197 198 205 210 201 190 196 189 183 191 197 199 204 204
263 276 275 253 247 248 238 238 238 240 239 242 242 238 223 213 210 209 205 205 221 234 221 208 203 201 204 217 203 195 194 192 185 183 187 188 192 191
260 269 256 244 241 249 253 247 233 237 234 234 237 236 228 218 217 210 206 202 206 225 225 217 207 204 219 220 197 203 198 190 182 181 186 193 191 188
271 259 253 242 238 236 238 235 231 226 237 245 242 240 233 225 223 217 212 216 215 214 213 220 206 201 206 204 205 207 201 194 179 176 184 203 200 186
236 251 250 246 245 243 241 242 240 237 237 240 242 242 239 235 232 222 212 215 220 220 212 201 186 194 215 234 217 208 207 194 178 179 188 198 207 189
230 245 247 242 242 246 246 244 243 239 236 237 241 243 240 238 237 235 222 214 221 226 218 198 193 199 214 230 232 211 199 191 184 195 200 202 207 190
233 238 241 238 238 240 246 251 249 238 234 242 245 243 240 238 235 231 227 222 224 232 229 210 200 203 209 218 221 233 210 198 191 194 198 200 186 155
246 242 243 241 239 234 236 241 242 238 231 232 241 239 237 237 239 234 226 215 221 229 228 222 216 202 199 193 210 217 206 195 190 190 190 196 199 186
254 251 248 243 233 230 228 232 240 243 230 233 244 239 239 240 244 243 239 230 227 225 224 216 193 188 184 201 216 218 208 187 189 189 189 194 194 198
252 254 247 238 233 223 226 235 241 247 243 238 245 250 251 254 254 248 250 246 237 228 215 202 196 204 209 204 210 217 213 205 192 176 207 226 212 197
Height
1528 1529 1529 1529 1530 1531 1531 1532 1533 1532 1532 1532 1532 1531 1531 1531 1531 1530 1530 1530 1530 1529 1530 1530 1529 1529 1529 1529 1528 1528 1527 1527 1526 1526 1526 1526 1526 1526
1525 1525 1526 1526 1527 1527 1528 1529 1529 1529 1529 1529 1529 1529 1529 1528 1528 1528 1528 1528 1528 1528 1528 1528 1527 1527 1527 1526 1526 1525 1525 1524 1523 1523 1523 1523 1523 1523
1522 1522 1522 1523 1523 1524 1525 1525 1526 1526 1526 1526 1526 1526 1526 1526 1526 1526 1526 1526 1526 1526 1526 1525 1525 1525 1524 1524 1523 1523 1522 1522 1521 1521 1521 1520 1520 1520
1518 1518 1519 1519 1520 1520 1521 1522 1522 1523 1523 1523 1523 1524 1524 1524 1523 1523 1523 1523 1523 1523 1523 1523 1523 1522 1522 1521 1521 1521 1520 1520 1519 1519 1518 1518 1518 1518
1515 1515 1515 1515 1516 1516 1517 1518 1519 1519 1520 1520 1520 1520 1520 1521 1520 1521 1521 1520 1520 1520 1520 1520 1520 1520 1519 1519 1518 1518 1518 1517 1517 1517 1517 1516 1516 1516
1511 1511 1511 1512 1512 1512 1513 1514 1515 1516 1516 1516 1516 1516 1517 1517 1517 1517 1517 1518 1517 1517 1517 1517 1517 1517 1517 1516 1516 1516 1515 1515 1515 1515 1514 1514 1514 1514
1507 1507 1507 1508 1508 1509 1509 1509 1510 1511 1512 1512 1512 1513 1513 1513 1513 1513 1514 1514 1514 1514 1514 1514 1514 1514 1513 1513 1513 1513 1513 1513 1512 1512 1512 1512 1512 1512
1503 1503 1504 1504 1504 1505 1505 1506 1506 1507 1507 1508 1508 1508 1507 1508 1509 1510 1510 1510 1510 1511 1511 1511 1511 1510 1510 1510 1510 1510 1510 1510 1510 1510 1510 1510 1510 1510
1498 1499 1499 1500 1500 1500 1501 1501 1502 1502 1503 1504 1504 1503 1503 1504 1505 1505 1505 1506 1506 1506 1507 1507 1507 1507 1507 1507 1507 1508 1508 1507 1507 1507 1508 1508 1508 1508
1494 1494 1494 1495 1496 1496 1496 1496 1497 1497 1498 1498 1499 1499 1499 1500 1500 1500 1501 1502 1502 1503 1504 1504 1504 1504 1504 1504 1505 1505 1505 1505 1505 1505 1505 1506 1506 1506
1489 1490 1490 1490 1491 1491 1492 1491 1491 1492 1493 1493 1494 1494 1494 1495 1495 1496 1496 1497 1497 1498 1499 1500 1500 1501 1501 1501 1502 1502 1503 1503 1503 1503 1503 1503 1503 1503
1485 1485 1486 1486 1486 1486 1487 1486 1486 1486 1488 1488 1488 1488 1489 1489 1490 1490 1491 1492 1492 1493 1494 1495 1496 1497 1497 1498 1498 1499 1499 1499 1500 1500 1500 1500 1500 1500
1481 1481 1481 1481 1481 1481 1482 1482 1482 1482 1483 1483 1482 1482 1483 1484 1484 1485 1486 1487 1487 1488 1489 1490 1491 1493 1494 1494 1494 1495 1496 1496 1496 1497 1497 1497 1498 1498
1477 1477 1477 1477 1477 1477 1476 1477 1477 1478 1478 1478 1478 1478 1478 1478 1479 1480 1481 1482 1483 1484 1485 1486 1486 1488 1489 1490 1490 1491 1492 1492 1493 1493 1494 1494 1494 1494
1473 1473 1473 1473 1472 1472 1472 1472 1472 1472 1472 1473 1473 1473 1474 1474 1475 1476 1476 1477 1477 1479 1480 1481 1482 1483 1484 1485 1485 1486 1487 1488 1489 1489 1490 1490 1490 1490
1469 1468 1468 1468 1468 1467 1467 1467 1467 1467 1467 1467 1468 1469 1470 1470 1471 1471 1471 1472 1472 1473 1475 1476 1477 1478 1479 1480 1481 1482 1483 1484 1485 1485 1486 1486 1487 1487
1464 1463 1463 1462 1462 1462 1462 1462 1462 1463 1462 1463 1463 1464 1464 1465 1465 1466 1467 1467 1468 1468 1469 1471 1472 1474 1475 1476 1477 1478 1479 1480 1481 1482 1482 1482 1483 1483
1459 1458 1457 1457 1457 1458 1458 1458 1458 1458 1458 1458 1458 1459 1460 1460 1460 1461 1462 1462 1463 1464 1464 1465 1467 1469 1471 1472 1473 1474 1475 1476 1477 1478 1479 1479 1479 1479
1453 1452 1452 1453 1453 1453 1453 1453 1453 1453 1454 1454 1454 1454 1455 1455 1456 1456 1457 1457 1458 1459 1460 1461 1462 1463 1465 1466 1468 1470 1471 1472 1473 1474 1475 1475 1475 1476
1447 1447 1447 1448 1448 1448 1448 1448 1449 1449 1449 1449 1450 1450 1450 1451 1451 1452 1452 1453 1454 1455 1456 1457 1458 1459 1460 1462 1463 1465 1467 1468 1469 1470 1471 1472 1472 1473
1442 1442 1442 1443 1443 1443 1444 1444 1444 1445 1445 1445 1445 1446 1446 1446 1447 1447 1448 1449 1450 1451 1451 1452 1453 1455 1457 1459 1460 1460 1462 1464 1465 1466 1467 1468 1468 1469
1437 1437 1437 1438 1438 1438 1439 1439 1440 1440 1440 1441 1441 1442 1442 1443 1443 1444 1444 1445 1446 1447 1447 1448 1450 1452 1453 1454 1454 1456 1458 1460 1461 1462 1464 1464 1464 1464
1433 1433 1432 1432 1433 1433 1434 1435 1435 1436 1436 1437 1437 1438 1438 1439 1439 1440 1440 1441 1442 1443 1444 1444 1446 1448 1449 1450 1451 1453 1454 1456 1457 1458 1459 1460 1461 1462